Location: Oroua River
(40.4333°S, 175.4333°E)
Time: 15:21:51
(UTC+00:00)

NOSS 3-1 (C) - Pass Details

Date: 03 February 2023
Orbit: 688 x 1519 km, 63.4° (Epoch: 21 March)

Event Time Altitude Azimuth Distance (km) Brightness Sun altitude
Rises 11:57:43 0° 214° (SSW) 3,853 7.5 -32.5°
Reaches altitude 10° 12:00:37 10° 211° (SSW) 2,762 6.6 -32.6°
Enters shadow 12:05:52 56° 181° (S) 1,033 3.8 -32.7°
